Time,TemperatureF,DewpointF,PressureIn,WindDirection,WindDirectionDegrees,WindSpeedMPH,WindSpeedGustMPH,Humidity,HourlyPrecipIn,Conditions,Clouds,dailyrainin,SolarRadiationWatts/m^2,SoftwareType,DateUTC
2013-03-05 00:12:00,27.2,23.0,29.96,ENE,78,9.0,10.0,85,0.00,,,0.00,0,weatherlink.com 1.10,2013-03-05 06:12:00,
2013-03-05 00:27:00,27.2,23.0,29.96,ENE,78,7.0,11.0,85,0.00,,,0.00,0,weatherlink.com 1.10,2013-03-05 06:27:00,
2013-03-05 00:42:00,27.0,24.0,29.96,ENE,71,9.0,13.0,87,0.00,,,0.00,0,weatherlink.com 1.10,2013-03-05 06:42:00,
2013-03-05 00:58:00,26.8,24.0,29.95,ENE,65,8.0,11.0,89,0.00,,,0.00,0,weatherlink.com 1.10,2013-03-05 06:58:00,
2013-03-05 01:13:00,26.9,24.0,29.95,ENE,59,8.0,11.0,89,0.00,,,0.00,0,weatherlink.com 1.10,2013-03-05 07:13:00,
2013-03-05 01:28:00,27.0,24.0,29.95,ENE,76,9.0,10.0,88,0.00,,,0.00,0,weatherlink.com 1.10,2013-03-05 07:28:00,
2013-03-05 01:43:00,27.2,24.0,29.94,ENE,65,11.0,13.0,88,0.00,,,0.00,0,weatherlink.com 1.10,2013-03-05 07:43:00,
2013-03-05 01:58:00,27.2,24.0,29.93,ENE,67,10.0,14.0,88,0.00,,,0.00,0,weatherlink.com 1.10,2013-03-05 07:58:00,
2013-03-05 02:13:00,27.4,25.0,29.92,ENE,75,10.0,12.0,89,0.00,,,0.00,0,weatherlink.com 1.10,2013-03-05 08:13:00,
2013-03-05 02:28:00,27.8,25.0,29.91,ENE,71,9.0,13.0,88,0.00,,,0.00,0,weatherlink.com 1.10,2013-03-05 08:28:00,
2013-03-05 02:43:00,28.0,25.0,29.91,ENE,63,10.0,12.0,88,0.00,,,0.00,0,weatherlink.com 1.10,2013-03-05 08:43:00,
2013-03-05 02:58:00,28.1,25.0,29.91,ENE,74,9.0,13.0,88,0.00,,,0.00,0,weatherlink.com 1.10,2013-03-05 08:58:00,
2013-03-05 03:13:00,28.0,25.0,29.90,ENE,69,12.0,14.0,89,0.00,,,0.00,0,weatherlink.com 1.10,2013-03-05 09:13:00,
2013-03-05 03:28:00,27.9,25.0,29.89,ENE,78,9.0,12.0,90,0.00,,,0.00,0,weatherlink.com 1.10,2013-03-05 09:28:00,
2013-03-05 03:43:00,27.8,25.0,29.89,ENE,76,10.0,12.0,90,0.00,,,0.00,0,weatherlink.com 1.10,2013-03-05 09:43:00,
2013-03-05 03:58:00,27.8,26.0,29.88,East,81,13.0,13.0,91,0.00,,,0.00,0,weatherlink.com 1.10,2013-03-05 09:58:00,
2013-03-05 04:13:00,27.8,26.0,29.88,ENE,78,9.0,12.0,91,0.00,,,0.00,0,weatherlink.com 1.10,2013-03-05 10:13:00,
2013-03-05 04:28:00,27.8,26.0,29.88,ENE,77,8.0,10.0,92,0.00,,,0.00,0,weatherlink.com 1.10,2013-03-05 10:28:00,
2013-03-05 04:43:00,27.7,26.0,29.88,East,83,8.0,9.0,92,0.00,,,0.00,0,weatherlink.com 1.10,2013-03-05 10:43:00,
2013-03-05 04:58:00,27.6,26.0,29.88,East,80,7.0,11.0,92,0.00,,,0.00,0,weatherlink.com 1.10,2013-03-05 10:58:00,
2013-03-05 05:13:00,27.6,26.0,29.89,ENE,67,5.0,10.0,92,0.00,,,0.00,0,weatherlink.com 1.10,2013-03-05 11:13:00,
2013-03-05 05:28:00,27.5,26.0,29.88,ENE,74,4.0,8.0,93,0.00,,,0.00,0,weatherlink.com 1.10,2013-03-05 11:28:00,
2013-03-05 05:43:00,27.4,26.0,29.88,ENE,65,7.0,9.0,93,0.00,,,0.00,0,weatherlink.com 1.10,2013-03-05 11:43:00,
2013-03-05 05:58:00,27.2,26.0,29.88,ENE,57,5.0,6.0,93,0.00,,,0.00,0,weatherlink.com 1.10,2013-03-05 11:58:00,
2013-03-05 06:13:00,27.1,26.0,29.88,NE,53,5.0,7.0,94,0.00,,,0.00,0,weatherlink.com 1.10,2013-03-05 12:13:00,
2013-03-05 06:28:00,27.1,26.0,29.88,NE,45,4.0,6.0,94,0.00,,,0.00,0,weatherlink.com 1.10,2013-03-05 12:28:00,
2013-03-05 06:43:00,27.1,26.0,29.88,NE,47,4.0,7.0,94,0.00,,,0.00,9,weatherlink.com 1.10,2013-03-05 12:43:00,
2013-03-05 06:58:00,27.2,26.0,29.88,NE,51,6.0,8.0,94,0.00,,,0.00,19,weatherlink.com 1.10,2013-03-05 12:58:00,
2013-03-05 07:13:00,27.3,26.0,29.89,NE,46,4.0,7.0,94,0.00,,,0.00,32,weatherlink.com 1.10,2013-03-05 13:13:00,
2013-03-05 07:28:00,27.5,26.0,29.89,NE,46,5.0,7.0,94,0.00,,,0.00,44,weatherlink.com 1.10,2013-03-05 13:28:00,
2013-03-05 07:43:00,27.6,26.0,29.89,NE,37,6.0,7.0,94,0.00,,,0.00,67,weatherlink.com 1.10,2013-03-05 13:43:00,
2013-03-05 07:58:00,27.8,26.0,29.88,NE,38,5.0,7.0,94,0.00,,,0.00,134,weatherlink.com 1.10,2013-03-05 13:58:00,
2013-03-05 08:13:00,28.0,27.0,29.88,NNE,32,5.0,7.0,94,0.00,,,0.00,104,weatherlink.com 1.10,2013-03-05 14:13:00,
2013-03-05 08:28:00,28.1,27.0,29.88,NNE,25,7.0,8.0,94,0.00,,,0.00,84,weatherlink.com 1.10,2013-03-05 14:28:00,
2013-03-05 08:43:00,28.1,27.0,29.87,NNE,23,5.0,9.0,94,0.00,,,0.00,95,weatherlink.com 1.10,2013-03-05 14:43:00,
2013-03-05 08:58:00,28.3,27.0,29.87,North,11,4.0,7.0,94,0.00,,,0.00,116,weatherlink.com 1.10,2013-03-05 14:58:00,
2013-03-05 09:13:00,28.2,27.0,29.86,NE,36,9.0,11.0,94,0.00,,,0.00,116,weatherlink.com 1.10,2013-03-05 15:13:00,
2013-03-05 09:28:00,28.4,27.0,29.86,NNE,29,6.0,10.0,94,0.00,,,0.00,132,weatherlink.com 1.10,2013-03-05 15:28:00,
2013-03-05 09:43:00,28.7,27.0,29.86,NNE,12,3.0,8.0,94,0.00,,,0.00,176,weatherlink.com 1.10,2013-03-05 15:43:00,
2013-03-05 09:59:00,28.7,27.0,29.85,NNE,23,7.0,8.0,94,0.00,,,0.00,171,weatherlink.com 1.10,2013-03-05 15:59:00,
2013-03-05 10:14:00,28.8,27.0,29.84,NNE,23,5.0,8.0,94,0.00,,,0.00,239,weatherlink.com 1.10,2013-03-05 16:14:00,
2013-03-05 10:29:00,29.1,28.0,29.84,NNE,28,7.0,8.0,94,0.00,,,0.00,276,weatherlink.com 1.10,2013-03-05 16:29:00,
2013-03-05 10:44:00,29.3,28.0,29.84,NNE,24,9.0,9.0,94,0.00,,,0.00,297,weatherlink.com 1.10,2013-03-05 16:44:00,
2013-03-05 10:59:00,29.6,28.0,29.84,NNE,18,5.0,9.0,94,0.00,,,0.00,336,weatherlink.com 1.10,2013-03-05 16:59:00,
2013-03-05 11:14:00,29.7,28.0,29.84,NNE,24,6.0,9.0,94,0.00,,,0.00,311,weatherlink.com 1.10,2013-03-05 17:14:00,
2013-03-05 11:29:00,29.8,28.0,29.83,NNE,31,7.0,8.0,94,0.00,,,0.00,306,weatherlink.com 1.10,2013-03-05 17:29:00,
2013-03-05 11:44:00,29.8,28.0,29.83,NE,40,8.0,10.0,94,0.01,,,0.01,260,weatherlink.com 1.10,2013-03-05 17:44:00,
2013-03-05 11:59:00,30.0,29.0,29.83,NNE,21,8.0,9.0,94,0.03,,,0.03,287,weatherlink.com 1.10,2013-03-05 17:59:00,
2013-03-05 12:14:00,30.2,29.0,29.83,NNE,18,6.0,10.0,94,0.04,,,0.04,304,weatherlink.com 1.10,2013-03-05 18:14:00,
2013-03-05 12:29:00,30.5,29.0,29.83,NNE,28,11.0,11.0,94,0.05,,,0.05,288,weatherlink.com 1.10,2013-03-05 18:29:00,
2013-03-05 12:44:00,30.2,29.0,29.83,North,11,3.0,12.0,94,0.04,,,0.06,264,weatherlink.com 1.10,2013-03-05 18:44:00,
2013-03-05 12:59:00,30.3,29.0,29.82,North,11,8.0,12.0,94,0.04,,,0.07,274,weatherlink.com 1.10,2013-03-05 18:59:00,
2013-03-05 13:14:00,30.1,29.0,29.83,North,11,7.0,12.0,94,0.04,,,0.08,272,weatherlink.com 1.10,2013-03-05 19:14:00,
2013-03-05 13:29:00,30.1,29.0,29.82,North,5,7.0,13.0,94,0.04,,,0.09,269,weatherlink.com 1.10,2013-03-05 19:29:00,
2013-03-05 13:44:00,29.6,28.0,29.83,NNE,27,6.0,16.0,93,0.04,,,0.10,260,weatherlink.com 1.10,2013-03-05 19:44:00,
2013-03-05 13:59:00,29.4,28.0,29.83,NNE,29,13.0,18.0,93,0.03,,,0.10,255,weatherlink.com 1.10,2013-03-05 19:59:00,
2013-03-05 14:14:00,29.3,28.0,29.84,NNE,27,11.0,15.0,94,0.03,,,0.11,323,weatherlink.com 1.10,2013-03-05 20:14:00,
2013-03-05 14:29:00,29.3,28.0,29.84,NNE,19,10.0,10.0,94,0.03,,,0.12,255,weatherlink.com 1.10,2013-03-05 20:29:00,
2013-03-05 14:44:00,29.1,27.0,29.85,North,355,3.0,14.0,93,0.03,,,0.13,274,weatherlink.com 1.10,2013-03-05 20:44:00,
2013-03-05 14:59:00,29.0,27.0,29.85,North,360,4.0,10.0,93,0.04,,,0.14,207,weatherlink.com 1.10,2013-03-05 20:59:00,
2013-03-05 15:14:00,28.8,27.0,29.86,NNE,22,6.0,13.0,93,0.03,,,0.14,221,weatherlink.com 1.10,2013-03-05 21:14:00,
2013-03-05 15:29:00,28.8,27.0,29.86,NNE,18,5.0,13.0,94,0.03,,,0.15,188,weatherlink.com 1.10,2013-03-05 21:29:00,
2013-03-05 15:44:00,28.8,27.0,29.87,North,5,8.0,11.0,94,0.03,,,0.16,169,weatherlink.com 1.10,2013-03-05 21:44:00,
2013-03-05 15:59:00,28.9,27.0,29.88,North,5,3.0,11.0,94,0.02,,,0.16,155,weatherlink.com 1.10,2013-03-05 21:59:00,
2013-03-05 16:14:00,28.5,27.0,29.88,NNW,348,10.0,15.0,94,0.02,,,0.16,144,weatherlink.com 1.10,2013-03-05 22:14:00,
2013-03-05 16:29:00,28.3,27.0,29.89,North,5,6.0,12.0,94,0.02,,,0.17,88,weatherlink.com 1.10,2013-03-05 22:29:00,
2013-03-05 16:44:00,27.6,26.0,29.90,North,11,11.0,15.0,93,0.01,,,0.17,69,weatherlink.com 1.10,2013-03-05 22:44:00,
2013-03-05 16:59:00,27.4,26.0,29.91,North,351,9.0,14.0,94,0.01,,,0.17,56,weatherlink.com 1.10,2013-03-05 22:59:00,
2013-03-05 17:14:00,27.2,26.0,29.92,NNE,22,6.0,12.0,93,0.01,,,0.17,40,weatherlink.com 1.10,2013-03-05 23:14:00,
2013-03-05 17:29:00,27.1,26.0,29.93,North,360,7.0,12.0,94,0.00,,,0.17,21,weatherlink.com 1.10,2013-03-05 23:29:00,
2013-03-05 17:44:00,26.6,25.0,29.94,North,5,5.0,16.0,93,0.00,,,0.17,9,weatherlink.com 1.10,2013-03-05 23:44:00,
2013-03-05 17:59:00,26.7,25.0,29.95,NNE,14,10.0,15.0,94,0.00,,,0.17,0,weatherlink.com 1.10,2013-03-05 23:59:00,
2013-03-05 18:14:00,26.6,25.0,29.96,North,360,4.0,12.0,94,0.00,,,0.17,0,weatherlink.com 1.10,2013-03-06 00:14:00,
2013-03-05 18:29:00,26.6,25.0,29.97,North,360,5.0,11.0,94,0.00,,,0.17,0,weatherlink.com 1.10,2013-03-06 00:29:00,
2013-03-05 18:44:00,26.5,25.0,29.97,North,355,6.0,9.0,94,0.00,,,0.17,0,weatherlink.com 1.10,2013-03-06 00:44:00,
2013-03-05 18:59:00,26.4,25.0,29.98,NNE,13,3.0,16.0,94,0.00,,,0.17,0,weatherlink.com 1.10,2013-03-06 00:59:00,
2013-03-05 19:14:00,26.1,24.0,29.99,North,360,6.0,16.0,93,0.00,,,0.17,0,weatherlink.com 1.10,2013-03-06 01:14:00,
2013-03-05 19:29:00,26.0,24.0,29.99,North,10,5.0,16.0,93,0.00,,,0.17,0,weatherlink.com 1.10,2013-03-06 01:29:00,
2013-03-05 19:44:00,26.2,25.0,30.00,NNE,15,3.0,9.0,94,0.00,,,0.17,0,weatherlink.com 1.10,2013-03-06 01:44:00,
2013-03-05 19:59:00,26.0,24.0,30.00,North,5,7.0,13.0,93,0.00,,,0.17,0,weatherlink.com 1.10,2013-03-06 01:59:00,
2013-03-05 20:14:00,25.9,24.0,30.01,NNW,347,4.0,11.0,93,0.00,,,0.17,0,weatherlink.com 1.10,2013-03-06 02:14:00,
2013-03-05 20:29:00,25.8,24.0,30.02,NNW,340,4.0,10.0,93,0.00,,,0.17,0,weatherlink.com 1.10,2013-03-06 02:29:00,
2013-03-05 20:45:00,25.8,24.0,30.03,NNW,339,6.0,11.0,93,0.00,,,0.17,0,weatherlink.com 1.10,2013-03-06 02:45:00,
2013-03-05 21:00:00,25.8,24.0,30.03,North,350,4.0,10.0,93,0.00,,,0.17,0,weatherlink.com 1.10,2013-03-06 03:00:00,
2013-03-05 21:15:00,25.8,24.0,30.04,NNW,329,9.0,12.0,93,0.00,,,0.17,0,weatherlink.com 1.10,2013-03-06 03:15:00,
2013-03-05 21:30:00,25.7,24.0,30.04,NNW,331,4.0,13.0,92,0.00,,,0.17,0,weatherlink.com 1.10,2013-03-06 03:30:00,
2013-03-05 21:45:00,25.7,24.0,30.05,NNW,348,6.0,14.0,93,0.00,,,0.17,0,weatherlink.com 1.10,2013-03-06 03:45:00,
2013-03-05 22:00:00,25.9,24.0,30.05,North,355,4.0,12.0,92,0.00,,,0.17,0,weatherlink.com 1.10,2013-03-06 04:00:00,
2013-03-05 22:15:00,25.8,24.0,30.06,North,350,4.0,10.0,92,0.00,,,0.17,0,weatherlink.com 1.10,2013-03-06 04:15:00,
2013-03-05 22:30:00,25.8,24.0,30.06,North,349,5.0,11.0,92,0.00,,,0.17,0,weatherlink.com 1.10,2013-03-06 04:30:00,
2013-03-05 22:45:00,25.3,23.0,30.07,North,355,4.0,12.0,91,0.00,,,0.17,0,weatherlink.com 1.10,2013-03-06 04:45:00,
2013-03-05 23:00:00,24.3,22.0,30.07,NW,323,10.0,11.0,91,0.00,,,0.17,0,weatherlink.com 1.10,2013-03-06 05:00:00,
2013-03-05 23:14:00,23.6,21.0,30.07,NW,321,10.0,12.0,90,0.00,,,0.17,0,weatherlink.com 1.10,2013-03-06 05:14:00,
2013-03-05 23:29:00,23.3,21.0,30.08,NW,326,13.0,14.0,92,0.00,,,0.17,0,weatherlink.com 1.10,2013-03-06 05:29:00,
2013-03-05 23:44:00,23.8,22.0,30.08,NNW,328,14.0,17.0,92,0.00,,,0.17,0,weatherlink.com 1.10,2013-03-06 05:44:00,
2013-03-05 23:59:00,24.1,22.0,30.09,NW,323,13.0,18.0,92,0.00,,,0.17,0,weatherlink.com 1.10,2013-03-06 05:59:00,